Time,TemperatureF,DewpointF,PressureIn,WindDirection,WindDirectionDegrees,WindSpeedMPH,WindSpeedGustMPH,Humidity,HourlyPrecipIn,Conditions,Clouds,dailyrainin,SoftwareType,DateUTC
2013-12-20 00:02:00,23.0,17.7,29.91,NNE,22,0.0,0.0,80,0.00,,,0.00,WUHU21636XXSP,2013-12-20 06:02:00,
2013-12-20 00:07:00,23.0,17.7,29.91,NNE,22,0.0,0.0,80,0.00,,,0.00,WUHU21636XXSP,2013-12-20 06:07:00,
2013-12-20 00:12:00,22.8,17.5,29.91,NNE,22,0.0,0.4,80,0.00,,,0.00,WUHU21636XXSP,2013-12-20 06:12:00,
2013-12-20 00:17:00,22.8,17.5,29.90,NNE,22,0.0,0.4,80,0.00,,,0.00,WUHU21636XXSP,2013-12-20 06:17:00,
2013-12-20 00:22:00,22.6,17.3,29.91,NNE,22,0.0,0.0,80,0.00,,,0.00,WUHU21636XXSP,2013-12-20 06:22:00,
2013-12-20 00:27:00,22.6,17.3,29.91,NNE,22,0.0,0.0,80,0.00,,,0.00,WUHU21636XXSP,2013-12-20 06:27:00,
2013-12-20 00:32:00,22.6,17.3,29.91,NNE,22,0.0,0.0,80,0.00,,,0.00,WUHU21636XXSP,2013-12-20 06:32:00,
2013-12-20 00:37:00,22.8,17.5,29.92,NNE,22,0.0,0.0,80,0.00,,,0.00,WUHU21636XXSP,2013-12-20 06:37:00,
2013-12-20 00:42:00,22.8,17.5,29.93,NNE,22,0.0,0.0,80,0.00,,,0.00,WUHU21636XXSP,2013-12-20 06:42:00,
2013-12-20 00:47:00,22.8,17.5,29.94,NNE,22,0.0,0.0,80,0.00,,,0.00,WUHU21636XXSP,2013-12-20 06:47:00,
2013-12-20 00:52:00,23.0,17.7,29.93,NNE,22,0.0,0.0,80,0.00,,,0.00,WUHU21636XXSP,2013-12-20 06:52:00,
2013-12-20 00:57:00,23.0,17.7,29.93,NNE,22,0.0,0.0,80,0.00,,,0.00,WUHU21636XXSP,2013-12-20 06:57:00,
2013-12-20 01:02:00,23.0,17.7,29.92,NNE,22,0.0,0.0,80,0.00,,,0.00,WUHU21636XXSP,2013-12-20 07:02:00,
2013-12-20 01:07:00,23.0,17.7,29.91,NNE,22,0.0,0.0,80,0.00,,,0.00,WUHU21636XXSP,2013-12-20 07:07:00,
2013-12-20 01:12:00,23.0,17.7,29.92,NNE,22,0.0,0.0,80,0.00,,,0.00,WUHU21636XXSP,2013-12-20 07:12:00,
2013-12-20 01:17:00,23.0,17.7,29.92,NNE,22,0.0,0.0,80,0.00,,,0.00,WUHU21636XXSP,2013-12-20 07:17:00,
2013-12-20 01:22:00,22.8,17.5,29.92,NNE,22,0.0,0.0,80,0.00,,,0.00,WUHU21636XXSP,2013-12-20 07:22:00,
2013-12-20 01:27:00,22.8,17.5,29.91,NNE,22,0.0,0.0,80,0.00,,,0.00,WUHU21636XXSP,2013-12-20 07:27:00,
2013-12-20 01:32:00,22.6,17.3,29.92,NNE,22,0.0,0.0,80,0.00,,,0.00,WUHU21636XXSP,2013-12-20 07:32:00,
2013-12-20 01:37:00,22.6,17.3,29.91,NNE,22,0.0,0.0,80,0.00,,,0.00,WUHU21636XXSP,2013-12-20 07:37:00,
2013-12-20 01:42:00,22.3,16.7,29.90,NNE,22,0.0,0.0,79,0.00,,,0.00,WUHU21636XXSP,2013-12-20 07:42:00,
2013-12-20 01:47:00,22.0,16.5,29.90,NNE,22,0.0,0.0,79,0.00,,,0.00,WUHU21636XXSP,2013-12-20 07:47:00,
2013-12-20 01:52:00,21.6,16.1,29.91,North,0,0.0,0.0,79,0.00,,,0.00,WUHU21636XXSP,2013-12-20 07:52:00,
2013-12-20 01:57:00,21.4,15.9,29.91,NNE,22,0.0,0.0,79,0.00,,,0.00,WUHU21636XXSP,2013-12-20 07:57:00,
2013-12-20 02:02:00,21.4,15.9,29.92,NNE,22,0.0,0.0,79,0.00,,,0.00,WUHU21636XXSP,2013-12-20 08:02:00,
2013-12-20 02:07:00,21.3,15.8,29.92,NNE,22,0.0,0.0,79,0.00,,,0.00,WUHU21636XXSP,2013-12-20 08:07:00,
2013-12-20 02:12:00,21.3,15.8,29.91,NNE,22,0.0,0.0,79,0.00,,,0.00,WUHU21636XXSP,2013-12-20 08:12:00,
2013-12-20 02:17:00,21.1,15.6,29.91,NNE,22,0.0,0.0,79,0.00,,,0.00,WUHU21636XXSP,2013-12-20 08:17:00,
2013-12-20 02:22:00,21.1,15.6,29.92,NNE,22,0.0,0.0,79,0.00,,,0.00,WUHU21636XXSP,2013-12-20 08:22:00,
2013-12-20 02:27:00,20.7,15.2,29.91,NNE,22,0.0,0.0,79,0.00,,,0.00,WUHU21636XXSP,2013-12-20 08:27:00,
2013-12-20 02:32:00,20.7,15.2,29.91,NNE,22,0.0,0.0,79,0.00,,,0.00,WUHU21636XXSP,2013-12-20 08:32:00,
2013-12-20 02:37:00,20.7,15.2,29.91,NNE,22,0.0,0.0,79,0.00,,,0.00,WUHU21636XXSP,2013-12-20 08:37:00,
2013-12-20 02:42:00,20.5,15.0,29.91,NNE,22,0.0,0.0,79,0.00,,,0.00,WUHU21636XXSP,2013-12-20 08:42:00,
2013-12-20 02:47:00,20.5,15.0,29.91,NNE,22,0.0,0.0,79,0.00,,,0.00,WUHU21636XXSP,2013-12-20 08:47:00,
2013-12-20 02:52:00,20.5,15.0,29.91,NNE,22,0.0,0.0,79,0.00,,,0.00,WUHU21636XXSP,2013-12-20 08:52:00,
2013-12-20 02:57:00,20.5,15.0,29.91,NNE,22,0.0,0.0,79,0.00,,,0.00,WUHU21636XXSP,2013-12-20 08:57:00,
2013-12-20 03:02:00,20.2,14.7,29.91,NNE,22,0.0,0.0,79,0.00,,,0.00,WUHU21636XXSP,2013-12-20 09:02:00,
2013-12-20 03:07:00,20.2,14.7,29.92,NNE,22,0.0,0.0,79,0.00,,,0.00,WUHU21636XXSP,2013-12-20 09:07:00,
2013-12-20 03:12:00,20.2,14.7,29.91,NNE,22,0.0,0.0,79,0.00,,,0.00,WUHU21636XXSP,2013-12-20 09:12:00,
2013-12-20 03:17:00,20.2,14.7,29.91,NNE,22,0.0,0.0,79,0.00,,,0.00,WUHU21636XXSP,2013-12-20 09:17:00,
2013-12-20 03:22:00,20.2,14.4,29.91,NNE,22,0.0,0.0,78,0.00,,,0.00,WUHU21636XXSP,2013-12-20 09:22:00,
2013-12-20 03:27:00,20.0,14.2,29.91,NNE,22,0.0,0.0,78,0.00,,,0.00,WUHU21636XXSP,2013-12-20 09:27:00,
2013-12-20 03:32:00,20.0,14.2,29.90,NNE,22,0.0,0.0,78,0.00,,,0.00,WUHU21636XXSP,2013-12-20 09:32:00,
2013-12-20 03:37:00,20.0,14.5,29.90,NNE,22,0.0,0.0,79,0.00,,,0.00,WUHU21636XXSP,2013-12-20 09:37:00,
2013-12-20 03:42:00,20.2,14.7,29.90,NNE,22,0.0,0.0,79,0.00,,,0.00,WUHU21636XXSP,2013-12-20 09:42:00,
2013-12-20 03:47:00,20.0,14.2,29.90,NNE,22,0.0,0.0,78,0.00,,,0.00,WUHU21636XXSP,2013-12-20 09:47:00,
2013-12-20 03:52:00,20.0,14.2,29.90,NNE,22,0.0,0.0,78,0.00,,,0.00,WUHU21636XXSP,2013-12-20 09:52:00,
2013-12-20 03:57:00,20.0,14.2,29.89,NNE,22,0.0,0.0,78,0.00,,,0.00,WUHU21636XXSP,2013-12-20 09:57:00,
2013-12-20 04:02:00,19.7,14.0,29.90,NNE,22,0.0,0.0,78,0.00,,,0.00,WUHU21636XXSP,2013-12-20 10:02:00,
2013-12-20 04:07:00,19.7,14.0,29.90,NNE,22,0.0,0.0,78,0.00,,,0.00,WUHU21636XXSP,2013-12-20 10:07:00,
2013-12-20 04:12:00,19.7,14.0,29.90,NNE,22,0.0,0.0,78,0.00,,,0.00,WUHU21636XXSP,2013-12-20 10:12:00,
2013-12-20 04:17:00,19.5,13.8,29.90,NNE,22,0.0,0.0,78,0.00,,,0.00,WUHU21636XXSP,2013-12-20 10:17:00,
2013-12-20 04:22:00,19.5,13.8,29.90,NNE,22,0.0,0.0,78,0.00,,,0.00,WUHU21636XXSP,2013-12-20 10:22:00,
2013-12-20 04:27:00,19.5,13.8,29.90,NNE,22,0.0,0.0,78,0.00,,,0.00,WUHU21636XXSP,2013-12-20 10:27:00,
2013-12-20 04:32:00,19.4,13.7,29.91,NNE,22,0.0,0.0,78,0.00,,,0.00,WUHU21636XXSP,2013-12-20 10:32:00,
2013-12-20 04:37:00,19.4,13.7,29.92,NNE,22,0.0,0.0,78,0.00,,,0.00,WUHU21636XXSP,2013-12-20 10:37:00,
2013-12-20 04:42:00,19.4,13.7,29.92,NNE,22,0.0,0.0,78,0.00,,,0.00,WUHU21636XXSP,2013-12-20 10:42:00,
2013-12-20 04:47:00,19.5,13.8,29.92,NNE,22,0.0,0.0,78,0.00,,,0.00,WUHU21636XXSP,2013-12-20 10:47:00,
2013-12-20 04:52:00,19.5,14.1,29.92,NNE,22,0.0,0.0,79,0.00,,,0.00,WUHU21636XXSP,2013-12-20 10:52:00,
2013-12-20 04:57:00,19.5,14.1,29.92,NNE,22,0.0,0.0,79,0.00,,,0.00,WUHU21636XXSP,2013-12-20 10:57:00,
2013-12-20 05:02:00,19.7,14.3,29.92,NNE,22,0.0,0.0,79,0.00,,,0.00,WUHU21636XXSP,2013-12-20 11:02:00,
2013-12-20 05:07:00,19.7,14.3,29.92,NNE,22,0.0,0.0,79,0.00,,,0.00,WUHU21636XXSP,2013-12-20 11:07:00,
2013-12-20 05:12:00,19.7,14.3,29.92,NNE,22,0.0,0.0,79,0.00,,,0.00,WUHU21636XXSP,2013-12-20 11:12:00,
2013-12-20 05:17:00,19.7,14.3,29.91,NNE,22,0.0,0.0,79,0.00,,,0.00,WUHU21636XXSP,2013-12-20 11:17:00,
2013-12-20 05:22:00,19.7,14.3,29.91,NNE,22,0.0,0.0,79,0.00,,,0.00,WUHU21636XXSP,2013-12-20 11:22:00,
2013-12-20 05:27:00,19.7,14.3,29.91,NNE,22,0.0,0.0,79,0.00,,,0.00,WUHU21636XXSP,2013-12-20 11:27:00,
2013-12-20 05:32:00,19.7,14.3,29.91,NNE,22,0.0,0.0,79,0.00,,,0.00,WUHU21636XXSP,2013-12-20 11:32:00,
2013-12-20 05:37:00,19.5,13.8,29.91,NNE,22,0.0,0.0,78,0.00,,,0.00,WUHU21636XXSP,2013-12-20 11:37:00,
2013-12-20 05:42:00,19.5,14.1,29.91,NNE,22,0.0,0.0,79,0.00,,,0.00,WUHU21636XXSP,2013-12-20 11:42:00,
2013-12-20 05:47:00,19.5,13.8,29.91,NNE,22,0.0,0.0,78,0.00,,,0.00,WUHU21636XXSP,2013-12-20 11:47:00,
2013-12-20 05:52:00,19.5,14.1,29.91,NNE,22,0.0,0.0,79,0.00,,,0.00,WUHU21636XXSP,2013-12-20 11:52:00,
2013-12-20 05:57:00,19.5,14.1,29.91,NNE,22,0.0,0.0,79,0.00,,,0.00,WUHU21636XXSP,2013-12-20 11:57:00,
2013-12-20 06:02:00,19.5,14.1,29.90,NNE,22,0.0,0.0,79,0.00,,,0.00,WUHU21636XXSP,2013-12-20 12:02:00,
2013-12-20 06:07:00,19.5,14.1,29.91,NNE,22,0.0,0.0,79,0.00,,,0.00,WUHU21636XXSP,2013-12-20 12:07:00,
2013-12-20 06:12:00,19.2,13.5,29.91,NNE,22,0.0,0.0,78,0.00,,,0.00,WUHU21636XXSP,2013-12-20 12:12:00,
2013-12-20 06:17:00,19.2,13.5,29.90,NNE,22,0.0,0.0,78,0.00,,,0.00,WUHU21636XXSP,2013-12-20 12:17:00,
2013-12-20 06:22:00,19.2,13.5,29.90,NNE,22,0.0,0.0,78,0.00,,,0.00,WUHU21636XXSP,2013-12-20 12:22:00,
2013-12-20 06:27:00,18.8,13.1,29.89,NNE,22,0.0,0.0,78,0.00,,,0.00,WUHU21636XXSP,2013-12-20 12:27:00,
2013-12-20 06:32:00,18.8,13.1,29.90,NNE,22,0.0,0.0,78,0.00,,,0.00,WUHU21636XXSP,2013-12-20 12:32:00,
2013-12-20 06:37:00,18.6,12.9,29.90,NNE,22,0.0,0.0,78,0.00,,,0.00,WUHU21636XXSP,2013-12-20 12:37:00,
2013-12-20 06:42:00,18.6,12.9,29.91,NNE,22,0.0,0.0,78,0.00,,,0.00,WUHU21636XXSP,2013-12-20 12:42:00,
2013-12-20 06:47:00,18.6,13.2,29.90,NNE,22,0.0,0.0,79,0.00,,,0.00,WUHU21636XXSP,2013-12-20 12:47:00,
2013-12-20 06:52:00,18.6,13.2,29.91,NNE,22,0.0,0.0,79,0.00,,,0.00,WUHU21636XXSP,2013-12-20 12:52:00,
2013-12-20 06:57:00,18.6,13.2,29.91,NNE,22,0.0,0.0,79,0.00,,,0.00,WUHU21636XXSP,2013-12-20 12:57:00,
2013-12-20 07:02:00,18.6,13.2,29.91,NNE,22,0.0,0.0,79,0.00,,,0.00,WUHU21636XXSP,2013-12-20 13:02:00,
2013-12-20 07:07:00,18.6,13.2,29.90,NNE,22,0.0,0.0,79,0.00,,,0.00,WUHU21636XXSP,2013-12-20 13:07:00,
2013-12-20 07:12:00,18.6,13.2,29.90,NNE,22,0.0,0.0,79,0.00,,,0.00,WUHU21636XXSP,2013-12-20 13:12:00,
2013-12-20 07:17:00,18.8,13.4,29.90,NNE,22,0.0,0.0,79,0.00,,,0.00,WUHU21636XXSP,2013-12-20 13:17:00,
2013-12-20 07:22:00,18.6,13.2,29.90,NNE,22,0.0,0.0,79,0.00,,,0.00,WUHU21636XXSP,2013-12-20 13:22:00,
2013-12-20 07:28:00,18.6,13.2,29.90,NNE,22,0.0,0.0,79,0.00,,,0.00,WUHU21636XXSP,2013-12-20 13:28:00,
2013-12-20 07:33:00,18.6,13.2,29.90,NNE,22,0.0,0.0,79,0.00,,,0.00,WUHU21636XXSP,2013-12-20 13:33:00,
2013-12-20 07:38:00,18.6,13.2,29.90,NNE,22,0.0,0.0,79,0.00,,,0.00,WUHU21636XXSP,2013-12-20 13:38:00,
2013-12-20 07:43:00,18.6,13.2,29.91,NNE,22,0.0,0.0,79,0.00,,,0.00,WUHU21636XXSP,2013-12-20 13:43:00,
2013-12-20 07:48:00,18.6,13.2,29.90,NNE,22,0.0,0.0,79,0.00,,,0.00,WUHU21636XXSP,2013-12-20 13:48:00,
2013-12-20 07:53:00,18.8,13.4,29.90,NNE,22,0.0,0.0,79,0.00,,,0.00,WUHU21636XXSP,2013-12-20 13:53:00,
2013-12-20 07:58:00,18.8,13.1,29.90,NNE,22,0.0,0.0,78,0.00,,,0.00,WUHU21636XXSP,2013-12-20 13:58:00,
2013-12-20 08:03:00,18.8,13.1,29.90,NNE,22,0.0,0.0,78,0.00,,,0.00,WUHU21636XXSP,2013-12-20 14:03:00,
2013-12-20 08:08:00,19.0,13.3,29.91,NNE,22,0.0,0.0,78,0.00,,,0.00,WUHU21636XXSP,2013-12-20 14:08:00,
2013-12-20 08:13:00,19.2,13.5,29.91,NNE,22,0.0,0.0,78,0.00,,,0.00,WUHU21636XXSP,2013-12-20 14:13:00,
2013-12-20 08:18:00,19.2,13.5,29.91,NNE,22,0.0,0.0,78,0.00,,,0.00,WUHU21636XXSP,2013-12-20 14:18:00,
2013-12-20 08:23:00,19.4,13.7,29.91,NNE,22,0.0,0.0,78,0.00,,,0.00,WUHU21636XXSP,2013-12-20 14:23:00,
2013-12-20 08:28:00,19.5,13.8,29.91,NNE,22,0.0,0.0,78,0.00,,,0.00,WUHU21636XXSP,2013-12-20 14:28:00,
2013-12-20 08:33:00,19.7,14.0,29.91,NNE,22,0.0,0.0,78,0.00,,,0.00,WUHU21636XXSP,2013-12-20 14:33:00,
2013-12-20 08:38:00,19.7,14.0,29.91,NNE,22,0.0,0.0,78,0.00,,,0.00,WUHU21636XXSP,2013-12-20 14:38:00,
2013-12-20 08:43:00,19.5,13.8,29.90,NNE,22,0.0,0.0,78,0.00,,,0.00,WUHU21636XXSP,2013-12-20 14:43:00,
2013-12-20 08:48:00,19.7,14.0,29.90,NNE,22,0.0,0.0,78,0.00,,,0.00,WUHU21636XXSP,2013-12-20 14:48:00,
2013-12-20 08:53:00,19.7,14.0,29.91,NNE,22,0.0,0.0,78,0.00,,,0.00,WUHU21636XXSP,2013-12-20 14:53:00,
2013-12-20 08:58:00,20.0,13.9,29.91,NNE,22,0.0,0.0,77,0.00,,,0.00,WUHU21636XXSP,2013-12-20 14:58:00,
2013-12-20 09:03:00,20.2,14.1,29.92,NNE,22,0.0,0.0,77,0.00,,,0.00,WUHU21636XXSP,2013-12-20 15:03:00,
2013-12-20 09:08:00,20.4,14.3,29.92,NNE,22,0.0,0.0,77,0.00,,,0.00,WUHU21636XXSP,2013-12-20 15:08:00,
2013-12-20 09:13:00,20.2,14.1,29.91,NNE,22,0.0,0.0,77,0.00,,,0.00,WUHU21636XXSP,2013-12-20 15:13:00,
2013-12-20 09:18:00,20.4,14.3,29.91,NNE,22,0.0,0.0,77,0.00,,,0.00,WUHU21636XXSP,2013-12-20 15:18:00,
2013-12-20 09:23:00,20.5,14.4,29.92,NNE,22,0.0,0.0,77,0.00,,,0.00,WUHU21636XXSP,2013-12-20 15:23:00,
2013-12-20 09:28:00,20.7,14.6,29.92,NNE,22,0.0,0.0,77,0.00,,,0.00,WUHU21636XXSP,2013-12-20 15:28:00,
2013-12-20 09:33:00,21.1,15.0,29.92,NNE,22,0.0,0.0,77,0.00,,,0.00,WUHU21636XXSP,2013-12-20 15:33:00,
2013-12-20 09:38:00,21.1,15.0,29.91,NNE,22,0.0,0.0,77,0.00,,,0.00,WUHU21636XXSP,2013-12-20 15:38:00,
2013-12-20 09:43:00,21.1,15.0,29.91,NNE,22,0.0,0.0,77,0.00,,,0.00,WUHU21636XXSP,2013-12-20 15:43:00,
2013-12-20 09:48:00,21.3,15.5,29.91,NNE,22,0.0,0.0,78,0.00,,,0.00,WUHU21636XXSP,2013-12-20 15:48:00,
2013-12-20 09:53:00,21.3,15.5,29.92,NNE,22,0.0,0.0,78,0.00,,,0.00,WUHU21636XXSP,2013-12-20 15:53:00,
2013-12-20 09:58:00,21.4,15.6,29.93,NNE,22,0.0,0.0,78,0.00,,,0.00,WUHU21636XXSP,2013-12-20 15:58:00,
2013-12-20 10:03:00,21.6,15.8,29.93,NNE,22,0.0,0.0,78,0.00,,,0.00,WUHU21636XXSP,2013-12-20 16:03:00,
2013-12-20 10:09:00,21.6,15.8,29.93,NNE,22,0.0,0.0,78,0.00,,,0.00,WUHU21636XXSP,2013-12-20 16:09:00,
2013-12-20 10:13:00,21.6,15.6,29.93,NNE,22,0.0,0.0,77,0.00,,,0.00,WUHU21636XXSP,2013-12-20 16:13:00,
2013-12-20 10:18:00,21.8,15.8,29.92,NNE,22,0.0,0.0,77,0.00,,,0.00,WUHU21636XXSP,2013-12-20 16:18:00,
2013-12-20 10:23:00,22.0,16.0,29.92,NNE,22,0.0,0.0,77,0.00,,,0.00,WUHU21636XXSP,2013-12-20 16:23:00,
2013-12-20 10:28:00,21.8,15.5,29.91,NNE,22,0.0,0.0,76,0.00,,,0.00,WUHU21636XXSP,2013-12-20 16:28:00,
2013-12-20 10:33:00,22.3,15.9,29.91,NNE,22,0.0,0.0,76,0.00,,,0.00,WUHU21636XXSP,2013-12-20 16:33:00,
2013-12-20 10:38:00,22.4,16.0,29.91,NNE,22,0.0,0.0,76,0.00,,,0.00,WUHU21636XXSP,2013-12-20 16:38:00,
2013-12-20 10:43:00,22.8,16.1,29.91,NNE,22,0.0,0.0,75,0.00,,,0.00,WUHU21636XXSP,2013-12-20 16:43:00,
2013-12-20 10:48:00,23.2,16.5,29.90,NNE,22,0.0,0.0,75,0.00,,,0.00,WUHU21636XXSP,2013-12-20 16:48:00,
2013-12-20 10:53:00,23.0,16.0,29.90,NNE,22,0.0,0.0,74,0.00,,,0.00,WUHU21636XXSP,2013-12-20 16:53:00,
2013-12-20 10:58:00,23.2,16.2,29.89,NNE,22,0.0,0.0,74,0.00,,,0.00,WUHU21636XXSP,2013-12-20 16:58:00,
2013-12-20 11:03:00,23.3,16.3,29.89,NNE,22,0.0,0.0,74,0.00,,,0.00,WUHU21636XXSP,2013-12-20 17:03:00,
2013-12-20 11:08:00,23.3,16.3,29.89,NNE,22,0.0,0.0,74,0.00,,,0.00,WUHU21636XXSP,2013-12-20 17:08:00,
2013-12-20 11:14:00,23.5,16.2,29.89,NNE,22,0.0,0.0,73,0.00,,,0.00,WUHU21636XXSP,2013-12-20 17:14:00,
2013-12-20 11:18:00,23.3,16.3,29.89,NNE,22,0.0,0.0,74,0.00,,,0.00,WUHU21636XXSP,2013-12-20 17:18:00,
2013-12-20 11:24:00,23.3,16.3,29.89,NNE,22,0.0,0.0,74,0.00,,,0.00,WUHU21636XXSP,2013-12-20 17:24:00,
2013-12-20 11:28:00,23.3,16.0,29.90,NNE,22,0.0,0.0,73,0.00,,,0.00,WUHU21636XXSP,2013-12-20 17:28:00,
2013-12-20 11:33:00,23.3,16.3,29.89,NNE,22,0.0,0.0,74,0.00,,,0.00,WUHU21636XXSP,2013-12-20 17:33:00,
2013-12-20 11:39:00,23.3,16.3,29.89,NNE,22,0.0,0.0,74,0.00,,,0.00,WUHU21636XXSP,2013-12-20 17:39:00,
2013-12-20 11:44:00,23.3,16.3,29.89,NNE,22,0.0,0.0,74,0.00,,,0.00,WUHU21636XXSP,2013-12-20 17:44:00,
2013-12-20 11:49:00,23.3,16.3,29.89,NNE,22,0.0,0.0,74,0.00,,,0.00,WUHU21636XXSP,2013-12-20 17:49:00,
2013-12-20 11:54:00,22.8,15.5,29.88,NNE,22,0.0,0.0,73,0.00,,,0.00,WUHU21636XXSP,2013-12-20 17:54:00,
2013-12-20 11:59:00,23.0,16.0,29.88,NNE,22,0.0,0.0,74,0.00,,,0.00,WUHU21636XXSP,2013-12-20 17:59:00,
2013-12-20 12:04:00,23.0,16.0,29.88,NNE,22,0.0,0.0,74,0.00,,,0.00,WUHU21636XXSP,2013-12-20 18:04:00,
2013-12-20 12:09:00,23.2,16.2,29.88,NNE,22,0.0,0.0,74,0.00,,,0.00,WUHU21636XXSP,2013-12-20 18:09:00,
2013-12-20 12:14:00,23.0,16.0,29.88,NNE,22,0.0,0.0,74,0.00,,,0.00,WUHU21636XXSP,2013-12-20 18:14:00,
2013-12-20 12:19:00,22.6,15.6,29.88,NNE,22,0.0,0.0,74,0.00,,,0.00,WUHU21636XXSP,2013-12-20 18:19:00,
2013-12-20 12:24:00,22.6,15.6,29.87,NNE,22,0.0,0.0,74,0.00,,,0.00,WUHU21636XXSP,2013-12-20 18:24:00,
2013-12-20 12:29:00,22.6,15.6,29.88,NNE,22,0.0,0.0,74,0.00,,,0.00,WUHU21636XXSP,2013-12-20 18:29:00,
2013-12-20 12:34:00,22.6,15.6,29.88,NNE,22,0.0,0.0,74,0.00,,,0.00,WUHU21636XXSP,2013-12-20 18:34:00,
2013-12-20 12:39:00,22.4,15.4,29.88,NNE,22,0.0,0.0,74,0.00,,,0.00,WUHU21636XXSP,2013-12-20 18:39:00,
2013-12-20 12:44:00,22.4,15.4,29.88,NNE,22,0.0,0.0,74,0.00,,,0.00,WUHU21636XXSP,2013-12-20 18:44:00,
2013-12-20 12:49:00,22.4,15.4,29.87,NNE,22,0.0,0.0,74,0.00,,,0.00,WUHU21636XXSP,2013-12-20 18:49:00,
2013-12-20 12:54:00,22.4,15.4,29.87,NNE,22,0.0,0.0,74,0.00,,,0.00,WUHU21636XXSP,2013-12-20 18:54:00,
2013-12-20 12:59:00,22.6,15.6,29.87,NNE,22,0.0,0.0,74,0.00,,,0.00,WUHU21636XXSP,2013-12-20 18:59:00,
2013-12-20 13:04:00,22.8,16.1,29.86,NNE,22,0.0,0.0,75,0.00,,,0.00,WUHU21636XXSP,2013-12-20 19:04:00,
2013-12-20 13:09:00,22.8,15.8,29.86,NNE,22,0.0,0.0,74,0.00,,,0.00,WUHU21636XXSP,2013-12-20 19:09:00,
2013-12-20 13:14:00,22.8,16.1,29.86,NNE,22,0.0,0.0,75,0.00,,,0.00,WUHU21636XXSP,2013-12-20 19:14:00,
2013-12-20 13:19:00,22.8,16.1,29.85,NNE,22,0.0,0.0,75,0.00,,,0.00,WUHU21636XXSP,2013-12-20 19:19:00,
2013-12-20 13:24:00,23.0,16.3,29.85,NNE,22,0.0,0.0,75,0.00,,,0.00,WUHU21636XXSP,2013-12-20 19:24:00,
2013-12-20 13:29:00,23.0,16.0,29.85,NNE,22,0.0,0.0,74,0.00,,,0.00,WUHU21636XXSP,2013-12-20 19:29:00,
2013-12-20 13:33:00,23.0,16.0,29.85,NNE,22,0.0,0.0,74,0.00,,,0.00,WUHU21636XXSP,2013-12-20 19:33:00,
2013-12-20 13:38:00,23.2,16.2,29.85,NNE,22,0.0,0.0,74,0.00,,,0.00,WUHU21636XXSP,2013-12-20 19:38:00,
2013-12-20 13:43:00,23.0,16.0,29.85,NNE,22,0.0,0.0,74,0.00,,,0.00,WUHU21636XXSP,2013-12-20 19:43:00,
2013-12-20 13:48:00,23.0,16.0,29.85,NNE,22,0.0,0.0,74,0.00,,,0.00,WUHU21636XXSP,2013-12-20 19:48:00,
2013-12-20 13:53:00,23.0,16.3,29.85,NNE,22,0.0,0.0,75,0.00,,,0.00,WUHU21636XXSP,2013-12-20 19:53:00,
2013-12-20 13:58:00,23.2,16.2,29.85,NNE,22,0.0,0.0,74,0.00,,,0.00,WUHU21636XXSP,2013-12-20 19:58:00,
2013-12-20 14:03:00,23.0,16.0,29.85,NNE,22,0.0,0.0,74,0.00,,,0.00,WUHU21636XXSP,2013-12-20 20:03:00,
2013-12-20 14:08:00,22.6,15.6,29.85,NNE,22,0.0,0.0,74,0.00,,,0.00,WUHU21636XXSP,2013-12-20 20:08:00,
2013-12-20 14:13:00,22.6,15.9,29.85,NNE,22,0.0,0.0,75,0.00,,,0.00,WUHU21636XXSP,2013-12-20 20:13:00,
2013-12-20 14:18:00,22.8,16.1,29.85,NNE,22,0.0,0.0,75,0.00,,,0.00,WUHU21636XXSP,2013-12-20 20:18:00,
2013-12-20 14:23:00,22.8,16.1,29.85,NNE,22,0.0,0.0,75,0.00,,,0.00,WUHU21636XXSP,2013-12-20 20:23:00,
2013-12-20 14:28:00,23.0,16.3,29.85,NNE,22,0.0,0.0,75,0.00,,,0.00,WUHU21636XXSP,2013-12-20 20:28:00,
2013-12-20 14:33:00,23.0,16.3,29.85,NNE,22,0.0,0.0,75,0.00,,,0.00,WUHU21636XXSP,2013-12-20 20:33:00,
2013-12-20 14:38:00,23.2,16.8,29.85,NNE,22,0.0,0.0,76,0.00,,,0.00,WUHU21636XXSP,2013-12-20 20:38:00,
2013-12-20 14:43:00,23.2,16.5,29.85,NNE,22,0.0,0.0,75,0.00,,,0.00,WUHU21636XXSP,2013-12-20 20:43:00,
2013-12-20 14:48:00,23.2,16.8,29.85,NNE,22,0.0,0.0,76,0.00,,,0.00,WUHU21636XXSP,2013-12-20 20:48:00,
2013-12-20 14:53:00,23.3,16.9,29.85,NNE,22,0.0,0.0,76,0.00,,,0.00,WUHU21636XXSP,2013-12-20 20:53:00,
2013-12-20 14:58:00,23.3,16.9,29.85,NNE,22,0.0,0.0,76,0.00,,,0.00,WUHU21636XXSP,2013-12-20 20:58:00,
2013-12-20 15:03:00,23.3,16.9,29.85,NNE,22,0.0,0.0,76,0.00,,,0.00,WUHU21636XXSP,2013-12-20 21:03:00,
2013-12-20 15:08:00,23.5,17.1,29.85,NNE,22,0.0,0.0,76,0.00,,,0.00,WUHU21636XXSP,2013-12-20 21:08:00,
2013-12-20 15:13:00,23.7,17.3,29.85,NNE,22,0.0,0.0,76,0.00,,,0.00,WUHU21636XXSP,2013-12-20 21:13:00,
2013-12-20 15:18:00,23.7,17.3,29.85,NNE,22,0.0,0.0,76,0.00,,,0.00,WUHU21636XXSP,2013-12-20 21:18:00,
2013-12-20 15:23:00,23.5,17.1,29.85,NNE,22,0.0,0.0,76,0.00,,,0.00,WUHU21636XXSP,2013-12-20 21:23:00,
2013-12-20 15:28:00,23.5,17.1,29.85,NNE,22,0.0,0.0,76,0.00,,,0.00,WUHU21636XXSP,2013-12-20 21:28:00,
2013-12-20 15:33:00,23.5,17.1,29.85,NNE,22,0.0,0.0,76,0.00,,,0.00,WUHU21636XXSP,2013-12-20 21:33:00,
2013-12-20 15:38:00,23.3,16.6,29.85,NNE,22,0.0,0.0,75,0.00,,,0.00,WUHU21636XXSP,2013-12-20 21:38:00,
2013-12-20 15:43:00,23.3,16.9,29.85,NNE,22,0.0,0.0,76,0.00,,,0.00,WUHU21636XXSP,2013-12-20 21:43:00,
2013-12-20 15:48:00,23.3,16.9,29.85,NNE,22,0.0,0.0,76,0.00,,,0.00,WUHU21636XXSP,2013-12-20 21:48:00,
2013-12-20 15:53:00,23.3,17.2,29.85,NNE,22,0.0,0.0,77,0.00,,,0.00,WUHU21636XXSP,2013-12-20 21:53:00,
2013-12-20 15:58:00,23.3,17.2,29.86,NNE,22,0.0,0.0,77,0.00,,,0.00,WUHU21636XXSP,2013-12-20 21:58:00,
2013-12-20 16:03:00,23.2,16.8,29.85,NNE,22,0.0,0.0,76,0.00,,,0.00,WUHU21636XXSP,2013-12-20 22:03:00,
2013-12-20 16:08:00,23.0,16.6,29.86,NNE,22,0.0,0.0,76,0.00,,,0.00,WUHU21636XXSP,2013-12-20 22:08:00,
2013-12-20 16:13:00,23.0,16.9,29.86,NNE,22,0.0,0.0,77,0.00,,,0.00,WUHU21636XXSP,2013-12-20 22:13:00,
2013-12-20 16:18:00,22.8,16.7,29.86,NNE,22,0.0,0.0,77,0.00,,,0.00,WUHU21636XXSP,2013-12-20 22:18:00,
2013-12-20 16:23:00,22.8,16.7,29.86,NNE,22,0.0,0.0,77,0.00,,,0.00,WUHU21636XXSP,2013-12-20 22:23:00,
2013-12-20 16:28:00,22.8,16.7,29.86,NNE,22,0.0,0.0,77,0.00,,,0.00,WUHU21636XXSP,2013-12-20 22:28:00,
2013-12-20 16:33:00,22.6,16.5,29.86,NNE,22,0.0,0.0,77,0.00,,,0.00,WUHU21636XXSP,2013-12-20 22:33:00,
2013-12-20 16:38:00,22.6,16.5,29.85,NNE,22,0.0,0.0,77,0.00,,,0.00,WUHU21636XXSP,2013-12-20 22:38:00,
2013-12-20 16:43:00,22.6,16.8,29.85,NNE,22,0.0,0.0,78,0.00,,,0.00,WUHU21636XXSP,2013-12-20 22:43:00,
2013-12-20 16:48:00,22.6,16.8,29.85,NNE,22,0.0,0.0,78,0.00,,,0.00,WUHU21636XXSP,2013-12-20 22:48:00,
2013-12-20 16:53:00,22.6,16.8,29.86,NNE,22,0.0,0.0,78,0.00,,,0.00,WUHU21636XXSP,2013-12-20 22:53:00,
2013-12-20 16:58:00,22.6,16.8,29.86,NNE,22,0.0,0.0,78,0.00,,,0.00,WUHU21636XXSP,2013-12-20 22:58:00,
2013-12-20 17:03:00,22.6,16.8,29.86,NNE,22,0.0,0.0,78,0.00,,,0.00,WUHU21636XXSP,2013-12-20 23:03:00,
2013-12-20 17:08:00,22.6,16.8,29.86,NNE,22,0.0,0.0,78,0.00,,,0.00,WUHU21636XXSP,2013-12-20 23:08:00,
2013-12-20 17:13:00,22.6,16.8,29.87,NNE,22,0.0,0.0,78,0.00,,,0.00,WUHU21636XXSP,2013-12-20 23:13:00,
2013-12-20 17:18:00,22.8,17.0,29.87,NNE,22,0.0,0.0,78,0.00,,,0.00,WUHU21636XXSP,2013-12-20 23:18:00,
2013-12-20 17:23:00,22.8,17.0,29.86,NNE,22,0.0,0.0,78,0.00,,,0.00,WUHU21636XXSP,2013-12-20 23:23:00,
2013-12-20 17:28:00,22.6,16.8,29.86,NNE,22,0.0,0.0,78,0.00,,,0.00,WUHU21636XXSP,2013-12-20 23:28:00,
2013-12-20 17:33:00,22.8,17.0,29.86,NNE,22,0.0,0.0,78,0.00,,,0.00,WUHU21636XXSP,2013-12-20 23:33:00,
2013-12-20 17:38:00,22.8,17.0,29.86,NNE,22,0.0,0.0,78,0.00,,,0.00,WUHU21636XXSP,2013-12-20 23:38:00,
2013-12-20 17:43:00,22.8,17.0,29.86,NNE,22,0.0,0.0,78,0.00,,,0.00,WUHU21636XXSP,2013-12-20 23:43:00,
2013-12-20 17:48:00,22.8,17.0,29.86,NNE,22,0.0,0.0,78,0.00,,,0.00,WUHU21636XXSP,2013-12-20 23:48:00,
2013-12-20 17:53:00,22.8,17.0,29.86,NNE,22,0.0,0.0,78,0.00,,,0.00,WUHU21636XXSP,2013-12-20 23:53:00,
2013-12-20 17:58:00,22.8,17.0,29.86,NNE,22,0.0,0.0,78,0.00,,,0.00,WUHU21636XXSP,2013-12-20 23:58:00,
2013-12-20 18:03:00,22.8,17.0,29.86,NNE,22,0.0,0.0,78,0.00,,,0.00,WUHU21636XXSP,2013-12-21 00:03:00,
2013-12-20 18:08:00,22.6,16.8,29.86,NNE,22,0.0,0.0,78,0.00,,,0.00,WUHU21636XXSP,2013-12-21 00:08:00,
2013-12-20 18:13:00,22.6,16.8,29.87,NNE,22,0.0,0.0,78,0.00,,,0.00,WUHU21636XXSP,2013-12-21 00:13:00,
2013-12-20 18:18:00,22.6,16.8,29.87,NNE,22,0.0,0.0,78,0.00,,,0.00,WUHU21636XXSP,2013-12-21 00:18:00,
2013-12-20 18:23:00,22.6,16.8,29.87,NNE,22,0.0,0.0,78,0.00,,,0.00,WUHU21636XXSP,2013-12-21 00:23:00,
2013-12-20 18:28:00,22.6,16.8,29.87,NNE,22,0.0,0.0,78,0.00,,,0.00,WUHU21636XXSP,2013-12-21 00:28:00,
2013-12-20 18:33:00,22.6,16.8,29.87,NNE,22,0.0,0.0,78,0.00,,,0.00,WUHU21636XXSP,2013-12-21 00:33:00,
2013-12-20 18:38:00,22.6,16.8,29.87,NNE,22,0.0,0.0,78,0.00,,,0.00,WUHU21636XXSP,2013-12-21 00:38:00,
2013-12-20 18:43:00,22.6,16.8,29.87,NNE,22,0.0,0.0,78,0.00,,,0.00,WUHU21636XXSP,2013-12-21 00:43:00,
2013-12-20 18:48:00,22.6,16.8,29.87,NNE,22,0.0,0.0,78,0.00,,,0.00,WUHU21636XXSP,2013-12-21 00:48:00,
2013-12-20 18:53:00,22.6,16.8,29.87,NNE,22,0.0,0.0,78,0.00,,,0.00,WUHU21636XXSP,2013-12-21 00:53:00,
2013-12-20 18:58:00,22.6,16.8,29.87,NNE,22,0.0,0.0,78,0.00,,,0.00,WUHU21636XXSP,2013-12-21 00:58:00,
2013-12-20 19:03:00,22.6,16.8,29.87,NNE,22,0.0,0.0,78,0.00,,,0.00,WUHU21636XXSP,2013-12-21 01:03:00,
2013-12-20 19:08:00,22.6,16.8,29.87,NNE,22,18.6,0.0,78,0.00,,,0.00,WUHU21636XXSP,2013-12-21 01:08:00,
2013-12-20 19:13:00,22.6,16.8,29.87,NNE,22,0.0,0.0,78,0.00,,,0.00,WUHU21636XXSP,2013-12-21 01:13:00,
2013-12-20 19:18:00,22.6,16.8,29.87,NNE,22,0.0,0.0,78,0.00,,,0.00,WUHU21636XXSP,2013-12-21 01:18:00,
2013-12-20 19:23:00,22.6,16.8,29.86,NNE,22,0.0,0.0,78,0.00,,,0.00,WUHU21636XXSP,2013-12-21 01:23:00,
2013-12-20 19:28:00,22.4,16.6,29.86,NNE,22,0.0,0.0,78,0.00,,,0.00,WUHU21636XXSP,2013-12-21 01:28:00,
2013-12-20 19:33:00,22.4,16.6,29.86,NNE,22,0.0,0.0,78,0.00,,,0.00,WUHU21636XXSP,2013-12-21 01:33:00,
2013-12-20 19:38:00,22.4,16.6,29.86,NNE,22,0.0,0.0,78,0.00,,,0.00,WUHU21636XXSP,2013-12-21 01:38:00,
2013-12-20 19:43:00,22.4,16.6,29.86,NNE,22,0.0,0.0,78,0.00,,,0.00,WUHU21636XXSP,2013-12-21 01:43:00,
2013-12-20 19:48:00,22.4,16.6,29.87,NNE,22,0.0,0.0,78,0.00,,,0.00,WUHU21636XXSP,2013-12-21 01:48:00,
2013-12-20 19:53:00,22.4,16.6,29.86,NNE,22,0.0,0.0,78,0.00,,,0.00,WUHU21636XXSP,2013-12-21 01:53:00,
2013-12-20 19:58:00,22.4,16.6,29.86,NNE,22,0.0,0.0,78,0.00,,,0.00,WUHU21636XXSP,2013-12-21 01:58:00,
2013-12-20 20:04:00,22.4,16.6,29.86,NNE,22,0.0,0.0,78,0.00,,,0.00,WUHU21636XXSP,2013-12-21 02:04:00,
2013-12-20 20:10:00,22.3,16.5,29.86,NNE,22,0.0,0.0,78,0.00,,,0.00,WUHU21636XXSP,2013-12-21 02:10:00,
2013-12-20 20:15:00,22.4,16.8,29.87,NNE,22,0.0,0.0,79,0.00,,,0.00,WUHU21636XXSP,2013-12-21 02:15:00,
2013-12-20 20:20:00,22.0,16.3,29.87,NNE,22,0.0,0.0,78,0.00,,,0.00,WUHU21636XXSP,2013-12-21 02:20:00,
2013-12-20 20:25:00,22.0,16.3,29.86,NNE,22,0.0,0.0,78,0.00,,,0.00,WUHU21636XXSP,2013-12-21 02:25:00,
2013-12-20 20:30:00,22.0,16.3,29.86,NNE,22,0.0,0.0,78,0.00,,,0.00,WUHU21636XXSP,2013-12-21 02:30:00,
2013-12-20 20:35:00,22.0,16.5,29.85,NNE,22,0.0,0.0,79,0.00,,,0.00,WUHU21636XXSP,2013-12-21 02:35:00,
2013-12-20 20:40:00,22.0,16.5,29.85,NNE,22,0.0,0.0,79,0.00,,,0.00,WUHU21636XXSP,2013-12-21 02:40:00,
2013-12-20 20:45:00,22.3,16.7,29.85,NNE,22,0.0,0.0,79,0.00,,,0.00,WUHU21636XXSP,2013-12-21 02:45:00,
2013-12-20 20:50:00,22.3,16.7,29.84,NNE,22,0.0,0.0,79,0.00,,,0.00,WUHU21636XXSP,2013-12-21 02:50:00,
2013-12-20 20:55:00,22.3,16.7,29.84,NNE,22,0.0,0.0,79,0.00,,,0.00,WUHU21636XXSP,2013-12-21 02:55:00,
2013-12-20 21:00:00,22.3,16.7,29.84,NNE,22,0.0,0.0,79,0.00,,,0.00,WUHU21636XXSP,2013-12-21 03:00:00,
2013-12-20 21:05:00,22.4,16.8,29.84,NNE,22,0.0,0.0,79,0.00,,,0.00,WUHU21636XXSP,2013-12-21 03:05:00,
2013-12-20 21:10:00,22.4,16.8,29.84,NNE,22,0.0,0.0,79,0.00,,,0.00,WUHU21636XXSP,2013-12-21 03:10:00,
2013-12-20 21:15:00,22.4,16.8,29.83,NNE,22,0.0,0.0,79,0.00,,,0.00,WUHU21636XXSP,2013-12-21 03:15:00,
2013-12-20 21:20:00,22.3,16.7,29.82,NNE,22,0.0,0.0,79,0.00,,,0.00,WUHU21636XXSP,2013-12-21 03:20:00,
2013-12-20 21:25:00,22.0,16.5,29.84,NNE,22,0.0,0.0,79,0.00,,,0.00,WUHU21636XXSP,2013-12-21 03:25:00,
2013-12-20 21:30:00,22.0,16.5,29.83,NNE,22,0.0,0.0,79,0.00,,,0.00,WUHU21636XXSP,2013-12-21 03:30:00,
2013-12-20 21:35:00,22.0,16.5,29.83,NNE,22,0.0,0.0,79,0.00,,,0.00,WUHU21636XXSP,2013-12-21 03:35:00,
2013-12-20 21:40:00,22.0,16.5,29.84,NNE,22,0.0,0.0,79,0.00,,,0.00,WUHU21636XXSP,2013-12-21 03:40:00,
2013-12-20 21:46:00,22.3,16.7,29.84,NNE,22,0.0,0.0,79,0.00,,,0.00,WUHU21636XXSP,2013-12-21 03:46:00,
2013-12-20 21:53:00,22.3,16.7,29.83,NNE,22,0.0,0.0,79,0.00,,,0.00,WUHU21636XXSP,2013-12-21 03:53:00,
2013-12-20 21:59:00,22.3,16.7,29.83,NNE,22,0.0,0.0,79,0.00,,,0.00,WUHU21636XXSP,2013-12-21 03:59:00,
2013-12-20 22:04:00,22.4,16.8,29.83,NNE,22,0.0,0.0,79,0.00,,,0.00,WUHU21636XXSP,2013-12-21 04:04:00,
2013-12-20 22:09:00,22.4,16.8,29.82,NNE,22,0.0,0.0,79,0.00,,,0.00,WUHU21636XXSP,2013-12-21 04:09:00,
2013-12-20 22:14:00,22.4,16.8,29.82,NNE,22,0.0,0.0,79,0.00,,,0.00,WUHU21636XXSP,2013-12-21 04:14:00,
2013-12-20 22:19:00,22.4,16.8,29.83,NNE,22,0.0,0.0,79,0.00,,,0.00,WUHU21636XXSP,2013-12-21 04:19:00,
2013-12-20 22:24:00,22.4,16.8,29.82,NNE,22,0.0,0.0,79,0.00,,,0.00,WUHU21636XXSP,2013-12-21 04:24:00,
2013-12-20 22:29:00,22.4,16.8,29.82,NNE,22,0.0,0.0,79,0.00,,,0.00,WUHU21636XXSP,2013-12-21 04:29:00,
2013-12-20 22:34:00,22.4,16.8,29.82,NNE,22,0.0,0.0,79,0.00,,,0.00,WUHU21636XXSP,2013-12-21 04:34:00,
2013-12-20 22:39:00,22.4,16.6,29.81,NNE,22,0.0,0.0,78,0.00,,,0.00,WUHU21636XXSP,2013-12-21 04:39:00,
2013-12-20 22:44:00,22.4,16.6,29.82,NNE,22,0.0,0.0,78,0.00,,,0.00,WUHU21636XXSP,2013-12-21 04:44:00,
2013-12-20 22:49:00,22.4,16.6,29.81,NNE,22,0.0,0.0,78,0.00,,,0.00,WUHU21636XXSP,2013-12-21 04:49:00,
2013-12-20 22:54:00,22.4,16.6,29.81,NNE,22,0.0,0.0,78,0.00,,,0.00,WUHU21636XXSP,2013-12-21 04:54:00,
2013-12-20 22:59:00,22.4,16.6,29.81,NNE,22,0.0,0.0,78,0.00,,,0.00,WUHU21636XXSP,2013-12-21 04:59:00,
2013-12-20 23:01:00,22.4,16.6,29.81,NNE,22,0.0,0.0,78,0.00,,,0.00,WUHU21636XXSP,2013-12-21 05:01:00,